User: anonymous   Login
Location: Austin, TX
(30.3000°N, 97.7500°W)
Time: 07:14:04
(UTC-06:00)
Language:

Cosmos 2082 Rocket - Orbit

View from above orbital plane
View from above orbital plane
View from above satellite
View from above satellite

Ground track
Ground track

The orbit data is extracted from the following two-line orbital elements,

1 20625U 90046B   17021.19819163 -.00000295  00000-0 -12825-3 0  9992
2 20625  70.9984  97.6402 0015621 322.4957  37.5075 14.14608535377055
Epoch (UTC): 21 January 2017 04:45:23
Eccentricity: 0.0015621
inclination: 70.9984°
perigee height: 832 km
apogee height: 855 km
right ascension of ascending node: 97.6402°
argument of perigee: 322.4957°
revolutions per day: 14.14608535
mean anomaly at epoch: 37.5075°
orbit number at epoch: 37705

The dashed part of the orbit path shows where the satellite is in the earth's shadow,  

DLR